Time,TemperatureF,DewpointF,PressureIn,WindDirection,WindDirectionDegrees,WindSpeedMPH,WindSpeedGustMPH,Humidity,HourlyPrecipIn,Conditions,Clouds,dailyrainin,SoftwareType,DateUTC
2013-01-07 00:03:00,37.0,32.0,30.27,ENE,62,0.0,2.0,81,0.00,,,0.05,,2013-01-07 05:03:00,
2013-01-07 00:12:00,37.0,32.0,30.27,ENE,62,0.0,2.0,81,0.00,,,0.05,,2013-01-07 05:12:00,
2013-01-07 00:22:00,37.0,31.0,30.26,NNW,348,1.0,5.0,79,0.00,,,0.05,,2013-01-07 05:22:00,
2013-01-07 00:33:00,36.0,30.0,30.26,East,82,0.0,3.0,79,0.00,,,0.04,,2013-01-07 05:33:00,
2013-01-07 00:42:00,36.0,30.0,30.26,East,82,0.0,3.0,79,0.00,,,0.04,,2013-01-07 05:42:00,
2013-01-07 00:52:00,36.0,30.0,30.26,North,351,0.0,2.0,80,0.00,,,0.04,,2013-01-07 05:52:00,
2013-01-07 01:02:00,35.0,29.0,30.24,North,351,0.0,0.0,80,0.00,,,0.04,,2013-01-07 06:02:00,
2013-01-07 01:12:00,35.0,29.0,30.24,North,351,0.0,0.0,80,0.00,,,0.04,,2013-01-07 06:12:00,
2013-01-07 01:22:00,35.0,30.0,30.24,North,351,0.0,0.0,82,0.00,,,0.04,,2013-01-07 06:22:00,
2013-01-07 01:32:00,34.0,29.0,30.24,North,351,0.0,0.0,83,0.00,,,0.04,,2013-01-07 06:32:00,
2013-01-07 01:42:00,34.0,29.0,30.24,North,351,0.0,0.0,83,0.00,,,0.04,,2013-01-07 06:42:00,
2013-01-07 01:52:00,33.0,29.0,30.25,North,351,0.0,0.0,84,0.00,,,0.04,,2013-01-07 06:52:00,
2013-01-07 02:02:00,33.0,29.0,30.25,SSW,197,0.0,2.0,86,0.00,,,0.04,,2013-01-07 07:02:00,
2013-01-07 02:12:00,33.0,29.0,30.25,SSW,197,0.0,2.0,86,0.00,,,0.04,,2013-01-07 07:12:00,
2013-01-07 02:22:00,33.0,30.0,30.25,SSW,197,0.0,0.0,87,0.00,,,0.04,,2013-01-07 07:22:00,
2013-01-07 02:33:00,32.0,29.0,30.26,SSW,197,0.0,0.0,87,0.00,,,0.03,,2013-01-07 07:33:00,
2013-01-07 02:42:00,32.0,29.0,30.26,SSW,197,0.0,0.0,87,0.00,,,0.03,,2013-01-07 07:42:00,
2013-01-07 02:52:00,32.0,29.0,30.26,SSW,197,0.0,1.0,87,0.00,,,0.03,,2013-01-07 07:52:00,
2013-01-07 03:03:00,32.0,29.0,30.27,SSW,197,0.0,1.0,88,0.00,,,0.03,,2013-01-07 08:03:00,
2013-01-07 03:12:00,32.0,29.0,30.27,SSW,197,0.0,1.0,88,0.00,,,0.03,,2013-01-07 08:12:00,
2013-01-07 03:22:00,31.0,28.0,30.27,SSW,197,0.0,0.0,88,0.00,,,0.03,,2013-01-07 08:22:00,
2013-01-07 03:33:00,31.0,28.0,30.28,SSW,197,0.0,0.0,88,0.00,,,0.02,,2013-01-07 08:33:00,
2013-01-07 03:42:00,31.0,28.0,30.28,SSW,197,0.0,0.0,88,0.00,,,0.02,,2013-01-07 08:42:00,
2013-01-07 03:52:00,31.0,28.0,30.29,SSW,197,0.0,0.0,88,0.00,,,0.02,,2013-01-07 08:52:00,
2013-01-07 04:02:00,30.0,27.0,30.29,SSW,197,0.0,1.0,89,0.00,,,0.02,,2013-01-07 09:02:00,
2013-01-07 04:12:00,30.0,27.0,30.29,SSW,197,0.0,1.0,89,0.00,,,0.02,,2013-01-07 09:12:00,
2013-01-07 04:23:00,30.0,27.0,30.30,SSW,197,0.0,0.0,89,0.00,,,0.02,,2013-01-07 09:23:00,
2013-01-07 04:32:00,30.0,27.0,30.30,SSW,197,0.0,0.0,89,0.00,,,0.01,,2013-01-07 09:32:00,
2013-01-07 04:42:00,30.0,27.0,30.30,SSW,197,0.0,0.0,89,0.00,,,0.01,,2013-01-07 09:42:00,
2013-01-07 04:52:00,30.0,27.0,30.30,SSW,196,0.0,0.0,89,0.00,,,0.01,,2013-01-07 09:52:00,
2013-01-07 05:02:00,30.0,27.0,30.31,SSW,196,0.0,0.0,89,0.00,,,0.01,,2013-01-07 10:02:00,
2013-01-07 05:12:00,30.0,27.0,30.31,SSW,196,0.0,0.0,89,0.00,,,0.01,,2013-01-07 10:12:00,
2013-01-07 05:22:00,29.0,26.0,30.32,SSW,196,0.0,1.0,90,0.00,,,0.01,,2013-01-07 10:22:00,
2013-01-07 05:33:00,29.0,26.0,30.32,SSW,196,0.0,0.0,90,0.00,,,0.00,,2013-01-07 10:33:00,
2013-01-07 05:42:00,29.0,26.0,30.32,SSW,196,0.0,0.0,90,0.00,,,0.00,,2013-01-07 10:42:00,
2013-01-07 05:52:00,28.0,25.0,30.32,SSW,196,0.0,0.0,90,0.00,,,0.00,,2013-01-07 10:52:00,
2013-01-07 06:02:00,28.0,26.0,30.33,SSW,196,0.0,0.0,91,0.00,,,0.00,,2013-01-07 11:02:00,
2013-01-07 06:12:00,28.0,26.0,30.33,SSW,196,0.0,0.0,91,0.00,,,0.00,,2013-01-07 11:12:00,
2013-01-07 06:23:00,28.0,26.0,30.34,SSW,196,0.0,0.0,91,0.00,,,0.00,,2013-01-07 11:23:00,
2013-01-07 06:33:00,27.0,25.0,30.35,SSW,196,0.0,0.0,92,0.00,,,0.00,,2013-01-07 11:33:00,
2013-01-07 06:43:00,27.0,25.0,30.35,SSW,196,0.0,0.0,92,0.00,,,0.00,,2013-01-07 11:43:00,
2013-01-07 06:53:00,27.0,25.0,30.35,SSW,196,0.0,0.0,92,0.00,,,0.00,,2013-01-07 11:53:00,
2013-01-07 07:03:00,27.0,25.0,30.35,SSW,196,0.0,0.0,92,0.00,,,0.00,,2013-01-07 12:03:00,
2013-01-07 07:12:00,26.0,24.0,30.35,SSW,196,0.0,0.0,92,0.00,,,0.00,,2013-01-07 12:12:00,
2013-01-07 07:23:00,26.0,24.0,30.35,SSW,196,0.0,0.0,92,0.00,,,0.00,,2013-01-07 12:23:00,
2013-01-07 07:33:00,26.0,24.0,30.35,SSW,196,0.0,0.0,93,0.00,,,0.00,,2013-01-07 12:33:00,
2013-01-07 07:43:00,26.0,24.0,30.35,SSW,196,0.0,0.0,93,0.00,,,0.00,,2013-01-07 12:43:00,
2013-01-07 07:52:00,26.0,24.0,30.35,SSW,196,0.0,0.0,93,0.00,,,0.00,,2013-01-07 12:52:00,
2013-01-07 08:03:00,26.0,24.0,30.36,SSW,196,0.0,0.0,93,0.00,,,0.00,,2013-01-07 13:03:00,
2013-01-07 08:12:00,26.0,24.0,30.36,SSW,196,0.0,0.0,93,0.00,,,0.00,,2013-01-07 13:12:00,
2013-01-07 08:23:00,26.0,24.0,30.36,SSW,196,0.0,0.0,93,0.00,,,0.00,,2013-01-07 13:23:00,
2013-01-07 08:33:00,26.0,24.0,30.37,SSW,197,0.0,0.0,93,0.00,,,0.00,,2013-01-07 13:33:00,
2013-01-07 08:43:00,26.0,24.0,30.37,SSW,197,0.0,0.0,93,0.00,,,0.00,,2013-01-07 13:43:00,
2013-01-07 08:52:00,25.0,23.0,30.37,SSW,197,0.0,0.0,93,0.00,,,0.00,,2013-01-07 13:52:00,
2013-01-07 09:03:00,25.0,24.0,30.38,SSW,196,0.0,0.0,94,0.00,,,0.00,,2013-01-07 14:03:00,
2013-01-07 09:13:00,25.0,24.0,30.38,SSW,196,0.0,0.0,94,0.00,,,0.00,,2013-01-07 14:13:00,
2013-01-07 09:23:00,25.0,24.0,30.38,SSW,196,0.0,0.0,94,0.00,,,0.00,,2013-01-07 14:23:00,
2013-01-07 09:33:00,25.0,24.0,30.38,SSW,196,0.0,0.0,94,0.00,,,0.00,,2013-01-07 14:33:00,
2013-01-07 09:43:00,25.0,24.0,30.38,SSW,196,0.0,0.0,94,0.00,,,0.00,,2013-01-07 14:43:00,
2013-01-07 09:53:00,25.0,24.0,30.38,SSW,196,0.0,0.0,94,0.00,,,0.00,,2013-01-07 14:53:00,
2013-01-07 10:03:00,26.0,25.0,30.39,SSW,196,0.0,0.0,96,0.00,,,0.00,,2013-01-07 15:03:00,
2013-01-07 10:12:00,26.0,25.0,30.39,SSW,196,0.0,0.0,96,0.00,,,0.00,,2013-01-07 15:12:00,
2013-01-07 10:23:00,26.0,25.0,30.39,SSW,196,0.0,0.0,95,0.00,,,0.00,,2013-01-07 15:23:00,
2013-01-07 10:33:00,27.0,26.0,30.40,SSW,197,0.0,0.0,96,0.00,,,0.00,,2013-01-07 15:33:00,
2013-01-07 10:43:00,27.0,26.0,30.40,SSW,197,0.0,0.0,96,0.00,,,0.00,,2013-01-07 15:43:00,
2013-01-07 10:53:00,27.0,26.0,30.40,SSW,196,0.0,0.0,96,0.00,,,0.00,,2013-01-07 15:53:00,
2013-01-07 11:03:00,28.0,27.0,30.39,SSW,196,0.0,0.0,96,0.00,,,0.00,,2013-01-07 16:03:00,
2013-01-07 11:12:00,28.0,27.0,30.39,SSW,196,0.0,0.0,96,0.00,,,0.00,,2013-01-07 16:12:00,
2013-01-07 11:23:00,29.0,28.0,30.39,SSW,196,0.0,1.0,97,0.00,,,0.00,,2013-01-07 16:23:00,
2013-01-07 11:33:00,30.0,29.0,30.38,SSW,197,0.0,1.0,96,0.00,,,0.00,,2013-01-07 16:33:00,
2013-01-07 11:43:00,30.0,29.0,30.38,SSW,197,0.0,1.0,96,0.00,,,0.00,,2013-01-07 16:43:00,
2013-01-07 11:53:00,31.0,29.0,30.38,SSW,197,0.0,0.0,94,0.00,,,0.00,,2013-01-07 16:53:00,
2013-01-07 12:03:00,32.0,30.0,30.37,SSW,196,0.0,0.0,92,0.00,,,0.00,,2013-01-07 17:03:00,
2013-01-07 12:12:00,32.0,30.0,30.37,SSW,196,0.0,0.0,92,0.00,,,0.00,,2013-01-07 17:12:00,
2013-01-07 12:23:00,33.0,31.0,30.37,SSW,196,0.0,0.0,91,0.00,,,0.00,,2013-01-07 17:23:00,
2013-01-07 12:33:00,34.0,31.0,30.36,SSW,196,0.0,0.0,88,0.00,,,0.00,,2013-01-07 17:33:00,
2013-01-07 12:42:00,34.0,31.0,30.36,SSW,196,0.0,0.0,88,0.00,,,0.00,,2013-01-07 17:42:00,
2013-01-07 12:53:00,35.0,31.0,30.35,SSW,196,0.0,1.0,85,0.00,,,0.00,,2013-01-07 17:53:00,
2013-01-07 13:03:00,37.0,32.0,30.34,SSW,196,0.0,0.0,83,0.00,,,0.00,,2013-01-07 18:03:00,
2013-01-07 13:13:00,37.0,32.0,30.34,SSW,196,0.0,0.0,83,0.00,,,0.00,,2013-01-07 18:13:00,
2013-01-07 13:23:00,38.0,32.0,30.33,SSW,196,0.0,0.0,80,0.00,,,0.00,,2013-01-07 18:23:00,
2013-01-07 13:33:00,39.0,32.0,30.32,SSW,197,0.0,1.0,75,0.00,,,0.00,,2013-01-07 18:33:00,
2013-01-07 13:43:00,39.0,32.0,30.32,SSW,197,0.0,1.0,75,0.00,,,0.00,,2013-01-07 18:43:00,
2013-01-07 13:52:00,41.0,33.0,30.31,SSW,197,0.0,0.0,73,0.00,,,0.00,,2013-01-07 18:52:00,
2013-01-07 14:03:00,42.0,33.0,30.31,SSW,197,0.0,0.0,70,0.00,,,0.00,,2013-01-07 19:03:00,
2013-01-07 14:12:00,42.0,33.0,30.31,SSW,197,0.0,0.0,70,0.00,,,0.00,,2013-01-07 19:12:00,
2013-01-07 14:23:00,43.0,32.0,30.30,WNW,291,0.0,1.0,66,0.00,,,0.00,,2013-01-07 19:23:00,
2013-01-07 14:33:00,45.0,31.0,30.30,NNW,338,0.0,1.0,58,0.00,,,0.00,,2013-01-07 19:33:00,
2013-01-07 14:43:00,45.0,31.0,30.30,NNW,338,0.0,1.0,58,0.00,,,0.00,,2013-01-07 19:43:00,
2013-01-07 14:53:00,47.0,33.0,30.30,NNW,338,0.0,1.0,59,0.00,,,0.00,,2013-01-07 19:53:00,
2013-01-07 15:03:00,47.0,33.0,30.30,NNW,338,0.0,1.0,59,0.00,,,0.00,,2013-01-07 20:03:00,
2013-01-07 15:12:00,47.0,33.0,30.30,NNW,338,0.0,1.0,59,0.00,,,0.00,,2013-01-07 20:12:00,
2013-01-07 15:23:00,48.0,36.0,30.30,NNW,338,0.0,0.0,62,0.00,,,0.00,,2013-01-07 20:23:00,
2013-01-07 15:33:00,48.0,35.0,30.30,NNW,338,0.0,1.0,61,0.00,,,0.00,,2013-01-07 20:33:00,
2013-01-07 15:43:00,48.0,35.0,30.30,NNW,338,0.0,1.0,61,0.00,,,0.00,,2013-01-07 20:43:00,
2013-01-07 15:52:00,48.0,29.0,30.30,NNW,338,0.0,0.0,48,0.00,,,0.00,,2013-01-07 20:52:00,
2013-01-07 16:03:00,49.0,29.0,30.30,North,349,0.0,2.0,46,0.00,,,0.00,,2013-01-07 21:03:00,
2013-01-07 16:12:00,49.0,29.0,30.30,North,349,0.0,2.0,46,0.00,,,0.00,,2013-01-07 21:12:00,
2013-01-07 16:23:00,49.0,29.0,30.30,North,349,0.0,1.0,46,0.00,,,0.00,,2013-01-07 21:23:00,
2013-01-07 16:33:00,50.0,29.0,30.30,North,349,0.0,2.0,44,0.00,,,0.00,,2013-01-07 21:33:00,
2013-01-07 16:43:00,50.0,29.0,30.30,North,349,0.0,2.0,44,0.00,,,0.00,,2013-01-07 21:43:00,
2013-01-07 16:52:00,50.0,29.0,30.31,North,349,0.0,2.0,44,0.00,,,0.00,,2013-01-07 21:52:00,
2013-01-07 17:03:00,50.0,30.0,30.32,North,349,0.0,0.0,46,0.00,,,0.00,,2013-01-07 22:03:00,
2013-01-07 17:12:00,50.0,30.0,30.32,North,349,0.0,0.0,46,0.00,,,0.00,,2013-01-07 22:12:00,
2013-01-07 17:23:00,49.0,29.0,30.31,North,349,0.0,1.0,46,0.00,,,0.00,,2013-01-07 22:23:00,
2013-01-07 17:33:00,48.0,29.0,30.31,North,349,0.0,0.0,48,0.00,,,0.00,,2013-01-07 22:33:00,
2013-01-07 17:43:00,48.0,29.0,30.31,North,349,0.0,0.0,48,0.00,,,0.00,,2013-01-07 22:43:00,
2013-01-07 17:53:00,47.0,29.0,30.32,North,349,0.0,1.0,50,0.00,,,0.00,,2013-01-07 22:53:00,
2013-01-07 18:02:00,46.0,30.0,30.32,North,349,0.0,1.0,53,0.00,,,0.00,,2013-01-07 23:02:00,
2013-01-07 18:12:00,46.0,30.0,30.32,North,349,0.0,1.0,53,0.00,,,0.00,,2013-01-07 23:12:00,
2013-01-07 18:23:00,45.0,29.0,30.32,North,349,0.0,0.0,53,0.00,,,0.00,,2013-01-07 23:23:00,
2013-01-07 18:33:00,44.0,29.0,30.33,North,349,0.0,1.0,56,0.00,,,0.00,,2013-01-07 23:33:00,
2013-01-07 18:43:00,44.0,29.0,30.33,North,349,0.0,1.0,56,0.00,,,0.00,,2013-01-07 23:43:00,
2013-01-07 18:53:00,43.0,28.0,30.35,North,349,0.0,1.0,55,0.00,,,0.00,,2013-01-07 23:53:00,
2013-01-07 19:03:00,42.0,29.0,30.35,North,349,0.0,1.0,59,0.00,,,0.00,,2013-01-08 00:03:00,
2013-01-07 19:12:00,42.0,29.0,30.35,North,349,0.0,1.0,59,0.00,,,0.00,,2013-01-08 00:12:00,
2013-01-07 19:22:00,42.0,30.0,30.35,North,349,0.0,1.0,62,0.00,,,0.00,,2013-01-08 00:22:00,
2013-01-07 19:33:00,41.0,29.0,30.35,North,349,0.0,0.0,62,0.00,,,0.00,,2013-01-08 00:33:00,
2013-01-07 19:42:00,41.0,29.0,30.35,North,349,0.0,0.0,62,0.00,,,0.00,,2013-01-08 00:42:00,
2013-01-07 19:52:00,40.0,28.0,30.34,North,349,0.0,0.0,62,0.00,,,0.00,,2013-01-08 00:52:00,
2013-01-07 20:03:00,40.0,28.0,30.35,North,349,0.0,1.0,63,0.00,,,0.00,,2013-01-08 01:03:00,
2013-01-07 20:12:00,40.0,28.0,30.35,North,349,0.0,1.0,63,0.00,,,0.00,,2013-01-08 01:12:00,
2013-01-07 20:22:00,39.0,28.0,30.35,North,349,0.0,0.0,65,0.00,,,0.00,,2013-01-08 01:22:00,
2013-01-07 20:33:00,39.0,28.0,30.35,North,349,0.0,0.0,65,0.00,,,0.00,,2013-01-08 01:33:00,
2013-01-07 20:42:00,39.0,28.0,30.35,North,349,0.0,0.0,65,0.00,,,0.00,,2013-01-08 01:42:00,
2013-01-07 20:52:00,38.0,28.0,30.35,North,349,0.0,0.0,68,0.00,,,0.00,,2013-01-08 01:52:00,
2013-01-07 21:02:00,37.0,28.0,30.35,North,349,0.0,0.0,70,0.00,,,0.00,,2013-01-08 02:02:00,
2013-01-07 21:12:00,37.0,28.0,30.35,North,349,0.0,0.0,70,0.00,,,0.00,,2013-01-08 02:12:00,
2013-01-07 21:22:00,37.0,28.0,30.35,North,349,0.0,0.0,70,0.00,,,0.00,,2013-01-08 02:22:00,
2013-01-07 21:33:00,36.0,27.0,30.34,North,349,0.0,0.0,70,0.00,,,0.00,,2013-01-08 02:33:00,
2013-01-07 21:42:00,36.0,27.0,30.34,North,349,0.0,0.0,70,0.00,,,0.00,,2013-01-08 02:42:00,
2013-01-07 21:53:00,36.0,28.0,30.33,North,349,0.0,0.0,72,0.00,,,0.00,,2013-01-08 02:53:00,
2013-01-07 22:03:00,36.0,28.0,30.34,North,349,0.0,0.0,72,0.00,,,0.00,,2013-01-08 03:03:00,
2013-01-07 22:12:00,36.0,28.0,30.34,North,349,0.0,0.0,72,0.00,,,0.00,,2013-01-08 03:12:00,
2013-01-07 22:22:00,35.0,28.0,30.34,North,349,0.0,0.0,74,0.00,,,0.00,,2013-01-08 03:22:00,
2013-01-07 22:32:00,35.0,28.0,30.35,North,349,0.0,0.0,75,0.00,,,0.00,,2013-01-08 03:32:00,
2013-01-07 22:43:00,35.0,28.0,30.35,North,349,0.0,0.0,75,0.00,,,0.00,,2013-01-08 03:43:00,
2013-01-07 22:53:00,34.0,28.0,30.36,North,349,0.0,0.0,77,0.00,,,0.00,,2013-01-08 03:53:00,
2013-01-07 23:02:00,34.0,28.0,30.35,North,349,0.0,0.0,78,0.00,,,0.00,,2013-01-08 04:02:00,
2013-01-07 23:12:00,34.0,28.0,30.35,North,349,0.0,0.0,78,0.00,,,0.00,,2013-01-08 04:12:00,
2013-01-07 23:22:00,34.0,28.0,30.35,North,349,0.0,0.0,77,0.00,,,0.00,,2013-01-08 04:22:00,
2013-01-07 23:32:00,34.0,28.0,30.34,North,349,0.0,1.0,77,0.00,,,0.00,,2013-01-08 04:32:00,
2013-01-07 23:42:00,34.0,28.0,30.34,North,349,0.0,1.0,77,0.00,,,0.00,,2013-01-08 04:42:00,
2013-01-07 23:52:00,34.0,28.0,30.34,North,349,0.0,1.0,79,0.00,,,0.00,,2013-01-08 04:52:00,